This is the latest recevied weather packets stored in our database for station/object N7CW. If no packets are shown the sender has not sent any weather packets the latest 10 day(s).
| Time | Temp. | Humidity | Pressure | Rain* | Wind** | Luminosity | Snow |
|---|---|---|---|---|---|---|---|
| 1777352584 | 7.78° C | 41% | 1017.1 hPa | 0 mm | - | 0 W/m² | - |
| 1777352281 | 7.78° C | 41% | 1017.1 hPa | 0 mm | - | 0 W/m² | - |
| 1777351977 | 7.78° C | 41% | 1017.1 hPa | 0 mm | - | 0 W/m² | - |
| 1777351675 | 8.33° C | 42% | 1017.2 hPa | 0 mm | - | 0 W/m² | - |
| 1777351372 | 8.33° C | 41% | 1017.3 hPa | 0 mm | - | 0 W/m² | - |
| 1777351071 | 7.78° C | 42% | 1017 hPa | 0 mm | - | 0 W/m² | - |
| 1777350769 | 7.78° C | 42% | 1016.8 hPa | 0 mm | - | 0 W/m² | - |
| 1777350464 | 8.33° C | 41% | 1017 hPa | 0 mm | - | 0 W/m² | - |
| 1777350162 | 8.33° C | 40% | 1016.8 hPa | 0 mm | - | 0 W/m² | - |
| 1777349858 | 8.33° C | 40% | 1016.8 hPa | 0 mm | - | 0 W/m² | - |
| 1777349556 | 8.33° C | 40% | 1016.6 hPa | 0 mm | - | 0 W/m² | - |
| 1777349254 | 8.33° C | 40% | 1016.6 hPa | 0 mm | - | 0 W/m² | - |
| 1777348952 | 8.89° C | 39% | 1016.6 hPa | 0 mm | - | 0 W/m² | - |
| 1777348649 | 8.89° C | 39% | 1016.1 hPa | 0 mm | - | 0 W/m² | - |
| 1777348346 | 8.89° C | 39% | 1016.2 hPa | 0 mm | - | 0 W/m² | - |
| 1777348044 | 8.33° C | 40% | 1016.4 hPa | 0 mm | - | 0 W/m² | - |
| 1777347742 | 8.89° C | 39% | 1016.1 hPa | 0 mm | - | 0 W/m² | - |
| 1777347440 | 8.89° C | 39% | 1016 hPa | 0 mm | - | 0 W/m² | - |
| 1777347134 | 8.89° C | 38% | 1015.8 hPa | 0 mm | - | 0 W/m² | - |
| 1777346830 | 8.89° C | 38% | 1015.8 hPa | 0 mm | - | 0 W/m² | - |
| 1777346528 | 9.44° C | 37% | 1015.7 hPa | 0 mm | - | 0 W/m² | - |
| 1777346224 | 9.44° C | 38% | 1015.5 hPa | 0 mm | - | 0 W/m² | - |
| 1777345922 | 9.44° C | 36% | 1015.4 hPa | 0 mm | - | 0 W/m² | - |
| 1777345619 | 9.44° C | 37% | 1015.4 hPa | 0 mm | - | 0 W/m² | - |
| 1777345315 | 9.44° C | 37% | 1015.3 hPa | 0 mm | - | 0 W/m² | - |
* Rain latest hour (hover to see other rain measurements)
** Current wind speed in m/s (hover to see current wind gust speed)